Powrót do katalogu

STARLINK-37858

AktywnyŁącznośćSSO
NORAD 69555·PAYLOAD·🇺🇸 United States

Wystrzelony Jun 15, 2026 z Vandenberg Space Force Base

Loading…

Następne Przeloty (najbliższe 24 godziny)

TLE

ŚwieżeSource: CelesTrak SupGP

Epoka: Sep 15, 2026, 03:44 UTC

1 69555C 26135K   26258.15604167 -.00047196  00000+0 -14651-2 0  2585
2 69555  97.2836 285.9089 0001201  93.4617 153.9715 15.33463064    19

Śledź STARLINK-37858 w czasie rzeczywistym z AllMySat

Download on the App Store